TimeCST,TemperatureF,Dew PointF,Humidity,Sea Level PressureIn,VisibilityMPH,Wind Direction,Wind SpeedMPH,Gust SpeedMPH,PrecipitationIn,Events,Conditions,WindDirDegrees,DateUTC
12:53 AM,21.0,14.0,74,30.17,10.0,SSW,8.1,-,N/A,,Clear,210,2013-01-16 06:53:00
1:53 AM,21.9,15.1,75,30.16,10.0,SW,9.2,-,N/A,,Clear,220,2013-01-16 07:53:00
2:53 AM,21.2,15.8,80,30.11,10.0,SSW,9.2,-,N/A,,Clear,210,2013-01-16 08:53:00
3:53 AM,21.9,16.0,78,30.12,10.0,SSW,12.7,-,N/A,,Clear,200,2013-01-16 09:53:00
4:53 AM,23.0,16.0,74,30.11,10.0,SW,10.4,-,N/A,,Clear,220,2013-01-16 10:53:00
5:53 AM,23.0,15.8,74,30.05,10.0,SW,9.2,-,N/A,,Clear,220,2013-01-16 11:53:00
6:53 AM,23.0,16.0,74,30.11,10.0,West,5.8,-,N/A,,Clear,260,2013-01-16 12:53:00
7:53 AM,21.9,15.1,75,30.12,10.0,SW,5.8,-,N/A,,Partly Cloudy,220,2013-01-16 13:53:00
8:53 AM,26.1,19.0,75,30.12,10.0,SSW,5.8,-,N/A,,Overcast,200,2013-01-16 14:53:00
9:53 AM,32.0,23.0,69,30.13,10.0,SSW,6.9,-,N/A,,Scattered Clouds,210,2013-01-16 15:53:00
10:53 AM,43.0,28.0,56,30.12,10.0,WNW,9.2,-,N/A,,Clear,300,2013-01-16 16:53:00
11:53 AM,48.0,28.9,48,30.10,10.0,NNW,6.9,-,N/A,,Clear,340,2013-01-16 17:53:00
12:53 PM,52.0,30.0,43,30.08,10.0,NNW,12.7,-,N/A,,Clear,330,2013-01-16 18:53:00
1:53 PM,55.4,30.2,38,30.04,10.0,NNW,13.8,-,N/A,,Clear,330,2013-01-16 19:53:00
2:53 PM,55.9,30.0,37,30.06,10.0,NW,11.5,-,N/A,,Clear,320,2013-01-16 20:53:00
3:53 PM,55.0,30.0,38,30.08,10.0,NW,15.0,-,N/A,,Clear,320,2013-01-16 21:53:00
4:53 PM,51.1,30.0,44,30.11,10.0,NNW,9.2,-,N/A,,Clear,330,2013-01-16 22:53:00
5:53 PM,39.9,26.1,58,30.14,10.0,NW,9.2,-,N/A,,Clear,310,2013-01-16 23:53:00
6:53 PM,37.9,26.1,62,30.17,10.0,West,8.1,-,N/A,,Clear,280,2013-01-17 00:53:00
7:53 PM,37.9,25.0,60,30.19,10.0,WNW,5.8,-,N/A,,Clear,290,2013-01-17 01:53:00
8:53 PM,37.0,27.0,67,30.21,10.0,WNW,11.5,-,N/A,,Clear,300,2013-01-17 02:53:00
9:53 PM,36.0,27.0,70,30.23,10.0,NW,9.2,-,N/A,,Clear,320,2013-01-17 03:53:00
10:53 PM,32.0,26.1,79,30.25,10.0,NW,6.9,-,N/A,,Clear,320,2013-01-17 04:53:00
11:53 PM,30.9,26.1,82,30.29,10.0,NW,6.9,-,N/A,,Clear,310,2013-01-17 05:53:00